GEFSNE_con_probscp_264.txt.gz
Probability
0 0 0 0 0 0 0 0 0 0 0 0 0 0 0 0 0 1 2 3 2 1 0 0 0 0 0 0 0 0 0 1 2 2 3 3 3 3
0 0 0 0 0 0 0 0 0 0 0 0 0 0 0 0 0 1 2 2 1 0 0 0 0 0 0 0 0 0 0 0 1 1 2 2 2 2
1 1 1 1 0 0 0 0 0 0 1 1 0 0 0 0 0 0 1 1 0 0 0 0 0 0 0 0 0 0 0 0 0 0 1 1 1 1
2 2 2 2 1 1 2 2 2 2 2 2 1 1 0 0 0 0 0 0 0 0 0 0 0 0 0 0 0 0 0 0 0 0 0 0 0 0
3 3 3 3 3 4 4 4 4 3 3 3 2 1 0 0 0 0 0 0 0 0 0 0 0 0 0 0 0 0 0 0 0 0 0 0 0 0
3 3 3 4 5 7 7 7 6 4 3 3 3 2 1 0 0 0 0 0 0 1 0 0 0 0 0 0 0 0 0 0 0 0 0 0 0 0
4 4 5 5 6 7 8 7 7 5 3 3 3 3 3 2 1 0 0 0 0 0 0 0 0 0 0 0 0 0 0 0 0 0 0 0 0 0
5 6 7 7 7 7 7 7 6 5 4 4 4 4 3 2 2 2 2 1 1 0 0 0 0 0 0 0 0 0 0 0 0 0 0 0 0 0
6 6 8 9 8 8 7 7 6 4 4 5 5 4 2 2 3 4 5 4 2 1 0 0 0 0 0 0 0 0 0 0 0 0 0 0 0 0
6 7 8 9 9 8 8 8 7 4 3 3 4 3 1 1 2 4 5 5 3 1 0 0 0 0 0 0 0 0 0 0 0 0 0 0 0 0
5 6 8 9 9 7 6 7 6 4 2 1 1 1 0 0 1 2 4 4 3 2 2 1 1 0 0 0 0 0 0 0 0 0 0 0 0 0
4 5 7 8 6 4 4 5 4 3 1 0 0 0 1 1 1 2 3 3 3 3 4 4 3 1 1 0 0 0 0 0 0 0 0 0 0 0
3 4 5 4 3 1 2 3 3 2 1 0 0 1 2 2 2 2 3 3 3 3 4 4 4 3 2 1 0 0 0 0 0 0 0 0 0 0
3 3 3 2 1 0 1 1 1 1 0 1 1 2 3 4 4 4 4 3 3 3 3 3 4 3 3 2 1 0 0 0 0 0 0 0 0 0
2 2 2 1 0 0 0 0 0 0 0 2 3 3 4 5 6 6 5 3 2 2 2 2 3 3 3 3 2 1 0 0 0 0 0 0 0 0
1 1 1 0 1 1 1 1 0 0 0 1 2 3 4 5 6 6 6 4 3 2 2 1 1 2 3 3 3 2 1 0 0 0 0 0 0 0
0 0 1 1 2 2 2 2 1 0 0 0 1 2 3 4 6 6 6 6 5 5 3 2 1 2 2 3 3 3 1 0 0 0 0 0 0 0
0 1 2 2 2 2 2 2 1 0 0 0 1 2 2 4 5 6 6 6 7 7 5 4 3 2 2 2 3 3 2 1 0 0 0 0 0 0
1 2 3 3 1 1 1 1 0 0 0 0 1 1 2 3 5 5 6 6 6 6 5 4 4 4 3 3 3 2 2 3 2 1 1 1 1 0
1 2 3 2 1 0 0 0 0 0 0 0 0 1 2 2 3 3 4 4 3 3 3 3 4 5 5 4 3 2 2 3 4 3 2 2 2 1
2 2 2 1 0 0 0 0 0 0 0 0 0 1 1 1 1 1 2 1 1 1 1 1 3 4 4 4 3 2 1 2 3 3 3 3 3 2
3 2 1 0 0 0 0 0 0 0 0 0 0 0 0 0 0 0 0 0 0 0 0 1 2 3 3 3 2 1 0 0 1 1 1 2 2 1
3 2 1 0 0 1 1 1 0 0 0 0 0 1 1 1 0 0 0 0 0 0 0 0 1 2 3 3 2 1 0 0 0 0 0 1 1 0

GEFSNE_con_probscp_270.txt.gz
Probability
0 0 0 0 0 0 0 0 0 0 0 0 0 0 0 0 0 1 1 1 0 0 1 2 2 2 2 1 0 0 0 1 2 2 2 3 5 5
0 0 0 0 0 0 0 0 0 0 0 0 0 0 0 0 1 1 1 1 1 0 0 1 1 1 1 0 0 0 0 0 1 1 1 2 3 3
0 0 1 1 1 1 1 0 0 0 0 1 1 1 2 2 2 2 2 2 1 0 0 0 0 0 0 0 0 0 0 0 0 0 0 1 1 1
1 1 3 3 3 3 3 2 2 1 1 2 2 3 3 3 3 2 1 1 1 0 0 0 0 0 0 0 0 0 0 0 0 0 0 0 0 0
2 3 4 5 6 6 6 6 5 4 4 4 4 3 3 3 3 2 0 0 0 0 0 0 0 0 0 0 0 0 0 0 0 0 0 0 0 0
3 3 4 6 7 8 9 8 7 7 7 6 5 4 4 3 3 2 0 0 0 0 0 0 0 0 0 0 0 0 0 0 0 0 0 0 0 0
1 2 4 6 7 7 8 8 8 9 9 9 7 7 6 4 3 2 0 0 0 0 0 0 0 0 0 0 0 0 0 0 0 0 0 0 0 0
1 3 5 5 5 5 5 7 7 8 10 10 10 9 8 5 4 3 1 1 1 1 0 0 0 0 0 0 0 0 0 0 0 0 0 0 0 0
4 5 7 7 7 7 6 5 5 5 7 9 10 10 8 6 6 5 3 2 1 1 1 2 2 1 0 0 0 0 0 0 0 0 0 0 0 0
5 7 8 8 8 9 8 7 5 4 4 5 7 8 6 5 5 5 5 3 2 1 1 2 3 2 0 0 0 0 0 0 0 0 0 0 0 0
6 7 7 7 7 6 7 7 6 4 2 2 2 3 3 2 2 3 3 3 3 2 1 1 1 1 1 1 1 0 0 0 0 0 0 0 0 0
6 6 6 6 4 3 3 5 5 3 2 1 0 1 1 0 0 1 1 2 3 3 2 1 1 2 3 3 2 1 0 0 0 0 0 0 0 0
6 6 6 4 2 1 1 2 2 2 2 2 1 1 1 1 1 0 0 0 2 3 3 3 4 5 5 4 3 2 1 0 0 0 0 0 0 0
6 6 5 3 1 0 0 1 1 1 2 3 2 2 2 2 2 1 1 1 1 2 3 4 5 6 6 5 4 3 1 0 0 0 0 0 0 0
5 4 3 1 0 0 0 0 0 0 2 3 3 2 2 1 1 2 2 2 1 1 2 3 4 5 5 5 5 5 3 2 1 1 0 0 0 0
5 4 3 2 1 1 0 0 0 0 1 2 2 1 0 0 0 1 1 1 1 1 2 4 4 4 4 4 5 5 5 4 3 2 1 0 0 0
5 6 6 4 2 1 0 0 0 0 0 1 1 0 0 0 0 0 0 0 0 1 2 4 5 4 4 3 4 4 5 6 5 4 3 2 1 1
4 7 8 5 2 1 0 0 0 0 0 0 0 0 0 0 0 0 0 0 0 0 1 2 3 3 3 2 2 4 5 6 6 6 5 5 4 3
2 5 6 4 3 2 1 0 0 0 0 0 0 0 0 0 0 0 0 0 0 0 0 0 1 1 1 1 2 3 4 5 5 5 6 6 6 5
1 3 4 3 3 3 1 1 1 1 1 0 0 0 0 0 0 0 0 0 0 0 0 0 0 0 0 0 1 2 3 3 4 4 5 5 5 5
1 2 3 3 3 3 3 2 1 0 1 1 1 1 1 0 0 0 0 0 0 0 0 0 0 0 0 0 0 1 2 1 2 4 3 3 3 3
1 1 2 3 3 3 3 2 1 0 0 0 1 1 2 1 0 0 0 0 0 0 0 0 0 0 0 0 0 0 0 0 1 1 1 1 2 1
0 1 2 3 3 3 3 2 1 0 0 0 0 1 2 1 0 0 0 0 0 0 0 0 0 0 0 0 0 0 0 0 0 0 0 0 1 0

GEFSNE_con_probscp_276.txt.gz
Probability
9 8 6 6 5 4 3 4 4 2 1 4 6 7 6 7 6 7 7 5 3 2 1 0 0 0 1 2 2 2 2 2 1 1 1 1 1 3
11 10 8 6 5 4 4 5 4 3 2 3 6 7 6 5 5 6 7 6 4 2 1 0 0 0 0 1 1 1 1 1 0 0 0 0 1 2
11 11 10 7 5 5 6 6 5 5 3 4 5 6 6 6 7 7 7 7 6 3 2 1 0 0 0 0 0 0 0 0 0 0 0 0 0 1
13 12 11 9 8 8 7 6 6 6 5 5 6 6 7 8 11 10 8 8 7 4 3 2 0 0 0 0 0 0 0 0 0 0 0 0 0 1
13 12 12 11 11 10 8 7 7 8 7 7 7 8 8 10 12 11 10 10 8 5 3 2 0 0 0 0 0 0 0 0 0 0 0 0 0 0
13 14 13 13 12 10 8 8 9 10 10 8 7 8 11 11 11 10 10 12 10 8 7 5 3 2 1 0 0 0 0 0 0 0 0 0 0 0
14 16 15 13 10 6 5 7 9 11 13 12 9 9 12 14 11 9 10 12 12 12 13 11 8 6 4 2 1 0 0 0 0 0 0 0 0 0
16 16 15 11 9 6 4 3 6 8 12 14 13 12 15 16 15 12 13 14 13 15 16 16 13 10 7 4 2 1 0 0 0 0 0 0 0 0
16 16 16 13 13 13 9 6 7 7 9 13 15 15 17 18 17 15 15 15 16 18 18 17 15 13 9 5 3 1 0 0 0 0 0 0 0 0
16 17 17 17 16 16 15 14 14 12 8 9 13 15 15 17 17 15 14 13 14 17 18 17 15 13 10 7 3 1 0 0 0 0 0 0 0 0
17 16 15 15 14 13 15 16 17 16 11 9 11 11 11 11 12 13 12 10 9 11 15 15 14 13 12 10 7 3 1 0 0 0 0 0 0 0
16 15 12 11 9 8 10 14 15 15 14 13 12 11 9 7 8 10 11 9 7 9 13 14 12 12 12 12 11 9 5 2 1 0 0 0 0 0
15 14 11 8 5 3 5 8 10 11 14 16 16 15 14 12 10 10 11 10 9 10 11 12 11 11 11 11 12 12 10 7 4 2 1 0 0 0
14 14 11 7 2 1 2 3 5 7 11 15 16 18 19 17 13 11 11 11 10 9 9 10 10 10 9 8 9 11 11 10 8 7 4 2 0 0
12 11 9 4 2 2 2 1 2 6 11 13 15 17 19 16 12 10 10 10 10 8 7 7 8 8 6 6 7 8 8 9 10 10 8 6 3 1
10 10 8 5 4 5 5 3 3 6 9 12 14 15 15 13 10 8 8 8 8 7 5 5 5 5 5 5 6 6 5 6 8 9 9 9 7 5
10 12 13 12 11 11 10 8 6 6 8 10 12 12 12 10 8 6 5 5 5 5 4 3 3 4 5 4 4 3 3 3 4 6 7 7 8 8
9 11 14 14 14 14 14 12 9 8 8 10 10 10 9 8 6 4 3 3 2 2 4 3 2 3 3 3 1 1 1 1 1 4 4 4 5 6
6 7 9 10 11 12 11 10 8 8 9 9 8 8 6 6 5 3 2 2 1 1 2 2 2 1 1 1 0 0 0 0 1 2 3 3 4 4
3 4 4 5 5 6 5 5 5 7 7 7 6 5 4 5 5 3 1 1 0 0 1 1 1 0 0 0 0 0 0 0 0 1 1 2 2 2
3 3 3 2 2 2 3 3 4 5 6 6 6 6 5 6 6 5 3 1 1 1 0 1 1 1 0 0 0 0 0 0 0 0 0 1 1 1
4 4 3 3 2 2 3 5 6 7 8 8 8 8 8 8 8 7 5 3 2 2 2 2 2 1 0 0 0 0 0 0 1 1 0 0 0 0
4 4 3 3 3 3 4 6 8 9 9 10 10 10 10 9 9 7 6 5 3 3 3 3 3 2 1 0 0 0 0 1 2 2 1 0 0 0

GEFSNE_con_probscp_282.txt.gz
Probability
17 19 19 15 11 11 10 8 6 5 6 9 11 11 12 11 8 10 11 8 4 3 3 3 1 0 0 0 0 0 1 2 2 3 3 3 3 3
16 17 17 15 13 10 10 9 7 6 8 10 11 12 11 8 7 9 10 7 4 3 3 3 2 0 0 0 0 0 0 1 1 2 2 3 3 3
15 15 15 15 13 10 8 8 7 7 9 10 11 14 13 10 8 9 8 5 4 3 3 3 1 0 1 1 0 0 0 0 0 1 1 1 3 3
15 14 13 13 13 11 8 8 7 8 10 11 11 14 16 15 13 11 8 5 4 4 3 3 1 1 2 1 0 0 0 0 0 0 0 1 2 2
16 15 13 12 13 14 12 10 10 10 12 14 13 13 15 16 16 14 10 7 5 4 3 3 3 3 2 1 0 0 0 0 0 0 0 0 1 1
18 17 15 14 15 16 16 15 15 15 16 16 15 14 14 15 15 14 11 9 7 6 5 4 3 3 3 1 0 0 0 0 0 0 0 0 0 0
20 18 16 15 15 15 15 16 18 18 19 17 15 15 15 14 14 14 13 11 10 9 8 6 5 4 3 2 1 0 0 0 0 0 0 0 0 0
23 21 18 14 13 13 13 13 13 15 17 17 16 15 15 14 15 15 14 13 13 12 11 9 8 7 5 4 2 1 0 0 0 0 0 0 0 0
26 25 21 15 13 14 13 11 10 10 11 13 14 14 14 14 15 16 16 15 15 15 13 11 9 9 8 7 4 1 0 0 0 0 0 0 0 0
28 27 23 18 16 15 15 14 13 11 9 9 10 10 11 11 13 15 15 15 15 17 15 10 8 8 9 8 5 1 0 0 0 0 0 0 0 0
26 24 20 17 14 13 13 14 14 13 11 8 6 6 7 7 9 12 13 13 14 15 14 11 8 7 8 8 5 2 0 0 0 0 0 0 0 0
23 21 16 12 9 7 9 11 12 12 11 10 7 7 8 8 9 10 12 12 12 12 12 11 9 8 8 8 7 4 2 1 0 0 0 0 0 0
22 20 15 9 5 3 4 7 8 8 10 10 10 11 13 14 13 12 13 13 12 11 10 9 8 8 8 8 7 6 5 3 1 0 0 0 0 0
20 17 13 8 3 2 2 2 2 4 7 10 10 12 13 14 13 13 15 15 13 11 9 8 8 8 6 5 5 5 6 5 3 2 2 1 0 0
15 13 9 6 4 4 4 2 1 3 6 9 10 10 11 11 11 11 12 12 10 8 8 9 9 7 5 3 3 3 3 3 3 4 4 2 1 1
11 11 9 8 7 8 7 6 4 4 7 9 10 10 9 9 10 10 8 6 6 5 7 9 8 7 5 3 2 1 1 1 1 3 4 4 3 3
12 13 12 12 11 11 10 9 8 8 9 10 10 9 9 8 9 9 7 5 5 5 6 7 6 5 4 3 2 1 0 0 0 1 2 3 3 3
11 14 15 14 14 13 12 12 11 11 11 11 11 10 9 8 7 7 6 6 6 5 5 5 3 2 1 1 1 0 0 0 0 0 1 1 1 1
7 10 12 13 14 13 12 11 10 10 11 12 11 11 9 8 6 5 5 5 4 4 3 2 1 0 0 0 0 0 0 0 0 0 0 0 0 0
3 5 8 10 11 11 10 8 7 7 9 11 10 10 9 9 7 5 4 3 3 3 3 1 0 0 0 0 0 0 0 0 0 0 0 0 0 0
4 4 6 8 8 7 6 5 4 5 6 8 8 8 8 8 7 5 4 3 3 4 3 2 2 1 0 0 0 0 0 0 0 0 0 0 0 0
7 7 7 7 6 5 5 4 4 5 7 8 8 8 8 7 7 6 5 4 4 4 4 4 4 3 1 0 0 0 0 0 0 0 0 0 0 0
10 9 7 6 6 6 5 5 5 7 9 9 9 10 9 8 7 6 6 4 4 4 5 6 6 5 2 1 0 0 0 0 0 0 0 0 0 0